EW1133 Weather Reports


Display with metric or nautical units.
time (UTC)temp
F
wind
direction
speed
MPH
gust
MPH
rain 1hr
in
rain 24hr
in
rain mn
in
humidity
%
barometer
mb
20260503175827 76 99 0.0 2.0 0.00 0.00 0.00 45 1011.0
20260503175339 75 40 0.0 2.0 0.00 0.00 0.00 46 1010.9
20260503174831 74 40 0.0 1.0 0.00 0.00 0.00 48 1011.0
20260503174323 74 40 0.0 2.0 0.00 0.00 0.00 48 1011.1
20260503173820 73 40 0.0 2.0 0.00 0.00 0.00 51 1011.0
20260503173331 72 40 0.0 2.0 0.00 0.00 0.00 51 1011.1
20260503172822 72 150 0.0 2.0 0.00 0.00 0.00 51 1011.1
20260503172316 71 84 0.0 3.0 0.00 0.00 0.00 53 1011.1
20260503171827 70 67 0.0 3.0 0.00 0.00 0.00 51 1011.2
20260503171320 69 310 0.0 2.0 0.00 0.00 0.00 56 1011.2
20260503170831 69 59 0.0 2.0 0.00 0.00 0.00 59 1011.1
20260503170322 68 59 0.0 5.0 0.00 0.00 0.00 59 1011.2
20260503150849 56 345 0.0 0.0 0.00 0.00 0.00 88 1011.8
20260503150318 56 345 0.0 0.0 0.00 0.00 0.00 88 1011.8
20260503131330 54 345 0.0 0.0 0.00 0.00 0.00 83 1011.4
20260503130824 54 345 0.0 0.0 0.00 0.00 0.00 83 1011.4
20260503130316 54 345 0.0 0.0 0.00 0.00 0.00 83 1011.3
20260503110824 56 345 0.0 0.0 0.00 0.00 0.00 83 1011.6
20260503110316 56 345 0.0 0.0 0.00 0.00 0.00 82 1011.6
20260503090329 57 345 0.0 0.0 0.00 0.00 0.00 81 1012.1
20260503081331 58 345 0.0 0.0 0.00 0.00 0.00 79 1012.1
20260503080821 58 345 0.0 0.0 0.00 0.00 0.00 79 1012.1
20260503080315 59 345 0.0 0.0 0.00 0.00 0.00 79 1012.1
20260503072830 59 345 0.0 0.0 0.00 0.00 0.00 78 1012.1
20260503072323 59 345 0.0 0.0 0.00 0.00 0.00 77 1012.2
20260503071815 60 345 0.0 0.0 0.00 0.00 0.00 77 1012.1
20260503071332 60 345 0.0 0.0 0.00 0.00 0.00 77 1012.1
20260503070829 60 345 0.0 0.0 0.00 0.00 0.00 77 1012.2
20260503070321 60 345 0.0 0.0 0.00 0.00 0.00 77 1012.2
20260503060327 61 345 0.0 0.0 0.00 0.00 0.00 74 1012.5
20260503054812 62 345 0.0 0.0 0.00 0.00 0.00 74 1012.3
20260503054328 62 345 0.0 0.0 0.00 0.00 0.00 74 1012.2
20260503053819 62 345 0.0 0.0 0.00 0.00 0.00 73 1012.3
20260503053333 62 345 0.0 0.0 0.00 0.00 0.00 73 1012.1
20260503052824 62 345 0.0 0.0 0.00 0.00 0.00 73 1012.1
20260503052321 63 345 0.0 0.0 0.00 0.00 0.00 73 1011.9
20260503051814 63 345 0.0 0.0 0.00 0.00 0.00 73 1011.9
20260503051329 63 345 0.0 0.0 0.00 0.00 0.00 72 1012.1
20260503050825 63 345 0.0 1.0 0.00 0.00 0.00 72 1012.1
20260503050321 63 345 0.0 1.0 0.00 0.00 0.00 73 1012.1
20260503045816 63 199 0.0 0.0 0.00 0.00 0.00 73 1012.1
20260503045327 63 199 0.0 1.0 0.00 0.00 0.00 72 1012.3
20260503044817 63 205 0.0 1.0 0.00 0.00 0.00 72 1012.5
20260503044313 63 201 0.0 1.0 0.00 0.00 0.00 71 1012.4
20260503043830 63 201 0.0 1.0 0.00 0.00 0.00 71 1012.1
20260503043321 63 201 0.0 0.0 0.00 0.00 0.00 71 1011.8
20260503042820 63 201 0.0 0.0 0.00 0.00 0.00 72 1011.8
20260503042316 64 201 0.0 0.0 0.00 0.00 0.00 71 1011.8
20260503041813 64 201 0.0 0.0 0.00 0.00 0.00 71 1011.8
20260503041404 64 201 0.0 0.0 0.00 0.00 0.00 71 1011.8